Date String (YYYY-MM-DD hh:mm:ss) UTC,Instrument flags,absolute air pressure of the measurement (hPa),sample flow rate (lpm),inlet stack bypass flow (lpm),air temperature of the measurement (°C),ambient temperature measured by the external sensor (°C),aerosol sample conditioner tube jacket temperature (°C),OPC LED temperature (°C),internal box temperature (°C),relative humidity of the measurement (%),span deviation,mass concentration of particles derived from Lorenz-Mie calculation of OPC scattering (μg/m³),mass concentration of particles derived from Lorenz-Mie calculation of OPC scattering (μg/m³),mass concentration of particles derived from Lorenz-Mie calculation of OPC scattering (μg/m³)
DateTimeUTC,F1_M11,P_M11,Q1_M11,Q2_M11,T1_M11,T2_M11,T3_M11,T4_M11,T5_M11,U1_M11,ZSPAN_M11,X2_M11,X0_M11,X1_M11
2024-02-04 07:00:00,SystemResetWarning,0821.3,5.00,000.00,018.6,018.0,000.0,026.9,020.2,27.2,0000.0,0000.73,0000.92,0000.65
2024-02-04 07:01:00,SystemResetWarning,0821.2,5.00,000.00,018.6,018.0,000.0,026.9,020.2,27.2,0000.0,0000.70,0000.88,0000.64
2024-02-04 07:02:00,SystemResetWarning,0821.3,4.99,000.00,018.6,018.0,000.0,026.9,020.2,27.2,0000.0,0000.71,0000.94,0000.63
2024-02-04 07:03:00,SystemResetWarning,0821.0,5.01,000.00,018.6,018.0,000.0,026.9,020.2,27.2,0000.0,0000.72,0000.96,0000.63
2024-02-04 07:04:00,SystemResetWarning,0821.1,5.01,000.00,018.6,018.0,000.0,026.9,020.2,27.2,0000.0,0000.71,0000.94,0000.63
2024-02-04 07:05:00,SystemResetWarning,0821.1,4.99,000.00,018.6,018.0,000.0,026.9,020.2,27.2,0000.0,0000.70,0000.92,0000.63
2024-02-04 07:06:00,SystemResetWarning,0821.1,5.00,000.00,018.6,018.0,000.0,026.9,020.2,27.2,0000.0,0000.69,0000.91,0000.62
2024-02-04 07:07:00,SystemResetWarning,0821.1,5.02,000.00,018.5,018.0,000.0,026.9,020.2,27.2,0000.0,0000.68,0000.90,0000.62
2024-02-04 07:08:00,SystemResetWarning,0821.1,5.00,000.00,018.6,018.0,000.0,026.9,020.2,27.1,0000.0,0000.68,0000.88,0000.63
2024-02-04 07:09:00,SystemResetWarning,0821.1,4.99,000.00,018.5,018.0,000.0,026.9,020.2,27.1,0000.0,0000.68,0000.96,0000.63
2024-02-04 07:10:00,SystemResetWarning,0821.5,4.99,000.00,018.5,018.0,000.0,026.9,020.2,27.1,0000.0,0000.71,0002.05,0000.65
2024-02-04 07:11:00,SystemResetWarning,0821.3,5.01,000.00,018.5,018.0,000.0,026.9,020.2,27.1,0000.0,0000.72,0002.13,0000.66
2024-02-04 07:12:00,SystemResetWarning,0821.3,5.00,000.00,018.5,018.0,000.0,026.9,020.2,27.1,0000.0,0000.76,0002.18,0000.68
2024-02-04 07:13:00,SystemResetWarning,0821.2,5.01,000.00,018.5,017.9,000.0,026.9,020.2,27.1,0000.0,0000.76,0002.13,0000.70
2024-02-04 07:14:00,SystemResetWarning,0821.2,5.00,000.00,018.5,017.9,000.0,026.9,020.2,27.1,0000.0,0000.76,0002.12,0000.71
2024-02-04 07:15:00,SystemResetWarning,0821.4,5.00,000.00,018.5,017.9,000.0,026.9,020.2,27.1,0000.0,0000.79,0002.17,0000.71
2024-02-04 07:16:00,SystemResetWarning,0821.5,4.99,000.00,018.5,017.9,000.0,026.9,020.2,27.1,0000.0,0000.82,0002.20,0000.74
2024-02-04 07:17:00,SystemResetWarning,0821.3,4.99,000.00,018.5,017.9,000.0,026.9,020.2,27.1,0000.0,0000.88,0002.28,0000.79
2024-02-04 07:18:00,SystemResetWarning,0821.2,5.00,000.00,018.5,017.9,000.0,026.9,020.2,27.1,0000.0,0000.95,0002.39,0000.84
2024-02-04 07:19:00,SystemResetWarning,0821.1,4.99,000.00,018.5,017.9,000.0,026.9,020.2,27.2,0000.0,0001.00,0002.46,0000.87
2024-02-04 07:20:00,SystemResetWarning,0821.1,5.01,000.00,018.5,017.9,000.0,026.9,020.2,27.2,0000.0,0001.04,0002.49,0000.91
2024-02-04 07:21:00,SystemResetWarning,0821.1,5.01,000.00,018.5,017.9,000.0,026.9,020.1,27.2,0000.0,0001.07,0001.59,0000.94
2024-02-04 07:22:00,SystemResetWarning,0821.1,4.99,000.00,018.5,017.9,000.0,026.9,020.1,27.2,0000.0,0001.13,0001.43,0000.99
2024-02-04 07:23:00,SystemResetWarning,0821.1,5.01,000.00,018.5,017.9,000.0,026.9,020.1,27.2,0000.0,0001.17,0001.49,0001.03
2024-02-04 07:24:00,SystemResetWarning,0821.1,5.02,000.00,018.5,017.9,000.0,026.9,020.1,27.1,0000.0,0001.20,0001.54,0001.07
2024-02-04 07:25:00,SystemResetWarning,0821.1,4.99,000.00,018.5,017.9,000.0,026.8,020.1,27.1,0000.0,0001.24,0001.59,0001.10
2024-02-04 07:26:00,SystemResetWarning,0821.1,4.99,000.00,018.5,017.9,000.0,026.8,020.1,27.1,0000.0,0001.28,0001.63,0001.14
2024-02-04 07:27:00,SystemResetWarning,0821.1,4.99,000.00,018.5,017.9,000.0,026.8,020.1,27.1,0000.0,0001.33,0001.74,0001.18
2024-02-04 07:28:00,SystemResetWarning,0821.1,5.00,000.00,018.5,017.9,000.0,026.8,020.1,27.2,0000.0,0001.35,0001.80,0001.18
2024-02-04 07:29:00,SystemResetWarning,0821.1,5.01,000.00,018.4,017.9,000.0,026.8,020.1,27.2,0000.0,0001.31,0002.51,0001.16
2024-02-04 07:30:00,SystemResetWarning,0821.1,4.98,000.00,018.4,017.9,000.0,026.8,020.1,27.2,0000.0,0001.31,0002.94,0001.16
2024-02-04 07:31:00,SystemResetWarning,0821.1,5.00,000.00,018.4,017.9,000.0,026.8,020.0,27.2,0000.0,0001.31,0002.94,0001.16
2024-02-04 07:32:00,SystemResetWarning,0821.1,5.00,000.00,018.4,017.8,000.0,026.8,020.0,27.2,0000.0,0001.30,0002.94,0001.14
2024-02-04 07:33:00,SystemResetWarning,0821.1,5.02,000.00,018.4,017.8,000.0,026.8,020.0,27.2,0000.0,0001.29,0002.94,0001.13
2024-02-04 07:34:00,SystemResetWarning,0821.1,5.00,000.00,018.4,017.8,000.0,026.8,020.0,27.2,0000.0,0001.28,0002.95,0001.11
2024-02-04 07:35:00,SystemResetWarning,0821.1,4.98,000.00,018.4,017.8,000.0,026.8,020.0,27.3,0000.0,0001.25,0002.91,0001.09
2024-02-04 07:36:00,SystemResetWarning,0821.0,5.02,000.00,018.4,017.8,000.0,026.8,020.0,27.9,0000.0,0001.26,0002.94,0001.09
2024-02-04 07:37:00,SystemResetWarning,0821.2,5.01,000.00,018.4,017.8,000.0,026.8,020.0,27.9,0000.0,0001.26,0002.92,0001.10
2024-02-04 07:38:00,SystemResetWarning,0821.3,4.99,000.00,018.4,017.8,000.0,026.8,020.0,27.4,0000.0,0001.25,0002.88,0001.10
2024-02-04 07:39:00,SystemResetWarning,0821.3,5.00,000.00,018.4,017.8,000.0,026.8,020.0,27.3,0000.0,0001.24,0002.83,0001.11
2024-02-04 07:40:00,SystemResetWarning,0821.1,5.00,000.00,018.4,017.8,000.0,026.8,020.0,27.2,0000.0,0001.24,0002.30,0001.12
2024-02-04 07:41:00,SystemResetWarning,0821.1,5.01,000.00,018.4,017.8,000.0,026.8,020.0,27.2,0000.0,0001.24,0001.62,0001.12
2024-02-04 07:42:00,SystemResetWarning,0821.1,5.00,000.00,018.4,017.8,000.0,026.8,020.0,27.1,0000.0,0001.21,0001.57,0001.11
2024-02-04 07:43:00,SystemResetWarning,0821.2,5.00,000.00,018.4,017.8,000.0,026.8,020.0,27.1,0000.0,0001.21,0001.54,0001.11
2024-02-04 07:44:00,SystemResetWarning,0821.2,5.00,000.00,018.4,017.8,000.0,026.8,020.0,27.0,0000.0,0001.19,0001.49,0001.11
2024-02-04 07:45:00,SystemResetWarning,0821.2,5.01,000.00,018.4,017.8,000.0,026.8,020.0,27.0,0000.0,0001.17,0001.41,0001.11
2024-02-04 07:46:00,SystemResetWarning,0821.2,5.00,000.00,018.4,017.8,000.0,026.8,020.0,27.0,0000.0,0001.18,0001.41,0001.13
2024-02-04 07:47:00,SystemResetWarning,0821.2,5.00,000.00,018.4,017.8,000.0,026.8,020.0,27.0,0000.0,0001.18,0001.40,0001.13
2024-02-04 07:48:00,SystemResetWarning,0821.2,5.01,000.00,018.4,017.8,000.0,026.8,020.0,27.0,0000.0,0001.19,0001.44,0001.13
2024-02-04 07:49:00,SystemResetWarning,0821.2,5.00,000.00,018.4,017.8,000.0,026.8,020.0,26.9,0000.0,0001.19,0001.45,0001.13
2024-02-04 07:50:00,SystemResetWarning,0821.2,5.00,000.00,018.4,017.8,000.0,026.8,020.0,26.9,0000.0,0001.18,0001.42,0001.13
2024-02-04 07:51:00,SystemResetWarning,0821.2,5.00,000.00,018.4,017.8,000.0,026.8,020.0,26.9,0000.0,0001.18,0001.39,0001.13
2024-02-04 07:52:00,SystemResetWarning,0821.2,4.99,000.00,018.4,017.8,000.0,026.8,020.0,26.9,0000.0,0001.17,0001.61,0001.12
2024-02-04 07:53:00,SystemResetWarning,0821.2,4.99,000.00,018.4,017.8,000.0,026.8,020.0,26.9,0000.0,0001.18,0002.13,0001.13
2024-02-04 07:54:00,SystemResetWarning,0821.2,5.00,000.00,018.4,017.7,000.0,026.8,020.0,26.8,0000.0,0001.20,0002.16,0001.14
2024-02-04 07:55:00,SystemResetWarning,0821.3,5.00,000.00,018.4,017.7,000.0,026.8,020.0,26.8,0000.0,0001.20,0002.23,0001.14
2024-02-04 07:56:00,SystemResetWarning,0821.2,5.02,000.00,018.4,017.7,000.0,026.8,020.0,26.8,0000.0,0001.20,0002.30,0001.14
2024-02-04 07:57:00,SystemResetWarning,0821.2,4.99,000.00,018.4,017.7,000.0,026.8,020.0,26.8,0000.0,0001.20,0002.32,0001.13
2024-02-04 07:58:00,SystemResetWarning,0821.2,4.99,000.00,018.4,017.7,000.0,026.8,020.0,26.8,0000.0,0001.18,0002.29,0001.12
2024-02-04 07:59:00,SystemResetWarning,0821.2,5.01,000.00,018.4,017.8,000.0,026.8,020.0,26.7,0000.0,0001.15,0002.23,0001.10
